Location: ????? ??????
(37.8317°N, 23.8750°E)
Time: 12:58:56
(UTC+00:00)

SAR-Lupe-1 - Pass Details

Date: 20 January 2021
Orbit: 482 x 484 km, 98.2° (Epoch: 02 March)

Event Time Altitude Azimuth Distance (km) Brightness Sun altitude
Exits shadow 17:08:14 12° 5° (N) 1,551 6.4 -18.3°
Maximum altitude 17:11:29 63° 285° (WNW) 541 4.4 -19.0°
Drops below altitude 10° 17:15:01 10° 204° (SSW) 1,655 7.2 -19.6°
Sets 17:17:04 0° 201° (SSW) 2,530 8.1 -20.0°
